Regional Weather Roundup
Issued by NWS

Home | Current Version | Previous Version | Graphics & Text | Print | Product List | Glossary On
Versions: 1 2 3 4 5 6 7 8 9 10 11 12 13 14 15 16 17 18 19 20 21 22 23 24 25 26 27 28 29 30 31 32 33 34 35 36 37 38 39 40 41 42 43 44 45 46 47 48 49 50
000
ASUS45 KCYS 300210
RWRWY

WYOMING REGIONAL WEATHER ROUNDUP
NATIONAL WEATHER SERVICE CHEYENNE WY
800 PM MDT FRI MAY 29 2015

NOTE:  "FAIR" INDICATES FEW OR NO CLOUDS BELOW 12,000 FEET
WITH NO SIGNIFICANT WEATHER AND/OR OBSTRUCTIONS TO VISIBILITY.

WYZ001-300300-
YELLOWSTONE NATIONAL PARK

CITY           SKY/WX    TMP DP  RH WIND       PRES   REMARKS
LK YELLOWSTONE   N/A     47  43  86 CALM      30.30S
W YELLOWSTONE  NOT AVBL

$$
WYZ002>013-054>058-071-098>099-300300-
NORTHERN WYOMING

CITY           SKY/WX    TMP DP  RH WIND       PRES   REMARKS
JACKSON        CLEAR     57  43  58 VRB6      30.21S
CODY           CLOUDY    59  50  72 NE7       30.20F
GREYBULL       MOCLDY    68  40  35 SW9       30.16S
WORLAND        FAIR      65  46  50 S7        30.19R
SHERIDAN       FAIR      54  45  71 SE6       30.24S
BUFFALO        MOCLDY    50  44  80 SE8       30.28F
GILLETTE       FAIR      54  36  50 E3        30.27F
HULETT         FAIR      52  36  54 CALM      30.29S
NEWCASTLE      FAIR      50  43  76 S13       30.29R

$$
WYZ014>020-022>026-101>103-300300-
CENTRAL WYOMING

CITY           SKY/WX    TMP DP  RH WIND       PRES   REMARKS
BIG PINEY      FAIR      58  38  47 CALM      30.28F
PINEDALE       MOCLDY    55  37  50 W3        30.29S
DUBOIS         FAIR      48  43  81 SE9       30.30S
LANDER         MOCLDY    59  44  57 CALM      30.24S
RIVERTON       FAIR      60  43  53 E3        30.25S
CASPER         FAIR      51  42  71 N7        30.30S
DOUGLAS        FAIR      54  45  71 NW3       30.30S

$$
WYZ021-027>030-104>119-300300-
SOUTHERN WYOMING

CITY           SKY/WX    TMP DP  RH WIND       PRES   REMARKS
EVANSTON       FAIR      64  37  36 NE3       30.26S
KEMMERER       FAIR      61  34  36 CALM      30.28S
FORT BRIDGER   CLEAR     63  39  42 NE3       30.30S
ROCK SPRINGS   FAIR      57  40  52 E10       30.28S
DIXON          FAIR      57  42  57 NE5       30.32S
RAWLINS        FAIR      54  40  59 E7        30.32S
SARATOGA       FAIR      54  37  54 N6        30.33S
LARAMIE        CLOUDY    47  38  71 NE5       30.34R
CHEYENNE       CLOUDY    47  44  90 N7        30.32S
TORRINGTON     CLOUDY    50  46  86 E3        30.29S
PINE BLUFFS    CLOUDY    48  45  87 N9        30.32R

$$



USA.gov is the U.S. government's official web portal to all federal, state and local government web resources and services.